Time,TemperatureF,DewpointF,PressureIn,WindDirection,WindDirectionDegrees,WindSpeedMPH,WindSpeedGustMPH,Humidity,HourlyPrecipIn,Conditions,Clouds,dailyrainin,SoftwareType,DateUTC
2013-05-01 00:02:00,55.2,52.9,30.25,ENE,59,0.0,1.0,92,0.00,,,0.03,Wunderground v.1.15,2013-05-01 04:02:00,
2013-05-01 00:03:00,55.1,52.8,30.25,ENE,60,2.0,2.0,92,0.00,,,0.03,Wunderground v.1.15,2013-05-01 04:03:00,
2013-05-01 00:04:00,55.1,52.8,30.25,ENE,60,1.0,2.0,92,0.00,,,0.03,Wunderground v.1.15,2013-05-01 04:04:00,
2013-05-01 00:07:00,55.0,52.7,30.25,ENE,59,1.0,2.0,92,0.00,,,0.03,Wunderground v.1.15,2013-05-01 04:07:00,
2013-05-01 00:10:00,55.0,52.7,30.26,ENE,59,2.0,2.0,92,0.00,,,0.03,Wunderground v.1.15,2013-05-01 04:10:00,
2013-05-01 00:15:00,54.9,52.6,30.26,ENE,58,2.0,4.0,92,0.00,,,0.00,Wunderground v.1.15,2013-05-01 04:15:00,
2013-05-01 00:21:00,54.9,52.6,30.26,ENE,57,1.0,2.0,92,0.00,,,0.00,Wunderground v.1.15,2013-05-01 04:21:00,
2013-05-01 00:26:00,54.8,52.5,30.27,ENE,61,4.0,5.0,92,0.00,,,0.00,Wunderground v.1.15,2013-05-01 04:26:00,
2013-05-01 00:31:00,54.8,52.8,30.27,ENE,59,0.0,4.0,93,0.00,,,0.00,Wunderground v.1.15,2013-05-01 04:31:00,
2013-05-01 00:36:00,54.6,52.6,30.27,ENE,57,0.0,4.0,93,0.00,,,0.00,Wunderground v.1.15,2013-05-01 04:36:00,
2013-05-01 00:42:00,54.5,52.5,30.27,ENE,59,0.0,2.0,93,0.00,,,0.00,Wunderground v.1.15,2013-05-01 04:42:00,
2013-05-01 00:48:00,54.3,52.3,30.27,ENE,59,0.0,2.0,93,0.00,,,0.00,Wunderground v.1.15,2013-05-01 04:48:00,
2013-05-01 00:53:00,54.2,52.2,30.26,ENE,59,1.0,1.0,93,0.00,,,0.00,Wunderground v.1.15,2013-05-01 04:53:00,
2013-05-01 00:58:00,54.0,52.0,30.27,East,81,2.0,7.0,93,0.00,,,0.00,Wunderground v.1.15,2013-05-01 04:58:00,
2013-05-01 01:04:00,53.9,51.9,30.27,ENE,78,0.0,4.0,93,0.00,,,0.00,Wunderground v.1.15,2013-05-01 05:04:00,
2013-05-01 01:10:00,53.8,51.8,30.27,ENE,75,0.0,1.0,93,0.00,,,0.00,Wunderground v.1.15,2013-05-01 05:10:00,
2013-05-01 01:15:00,53.7,51.7,30.27,ENE,75,1.0,2.0,93,0.00,,,0.00,Wunderground v.1.15,2013-05-01 05:15:00,
2013-05-01 01:21:00,53.6,51.6,30.27,ENE,75,2.0,2.0,93,0.00,,,0.00,Wunderground v.1.15,2013-05-01 05:21:00,
2013-05-01 01:27:00,53.4,51.4,30.26,ENE,71,3.0,3.0,93,0.00,,,0.00,Wunderground v.1.15,2013-05-01 05:27:00,
2013-05-01 01:32:00,53.3,51.3,30.26,ENE,67,0.0,1.0,93,0.00,,,0.00,Wunderground v.1.15,2013-05-01 05:32:00,
2013-05-01 01:37:00,53.2,51.2,30.26,ENE,68,0.0,1.0,93,0.00,,,0.00,Wunderground v.1.15,2013-05-01 05:37:00,
2013-05-01 01:43:00,53.1,51.1,30.26,ENE,68,0.0,1.0,93,0.00,,,0.00,Wunderground v.1.15,2013-05-01 05:43:00,
2013-05-01 01:48:00,53.0,51.0,30.25,ENE,69,0.0,4.0,93,0.00,,,0.00,Wunderground v.1.15,2013-05-01 05:48:00,
2013-05-01 01:53:00,53.0,51.0,30.25,ENE,71,1.0,2.0,93,0.00,,,0.00,Wunderground v.1.15,2013-05-01 05:53:00,
2013-05-01 01:58:00,53.0,51.0,30.25,ENE,57,3.0,4.0,93,0.00,,,0.00,Wunderground v.1.15,2013-05-01 05:58:00,
2013-05-01 02:03:00,53.0,51.0,30.26,ENE,57,3.0,4.0,93,0.00,,,0.00,Wunderground v.1.15,2013-05-01 06:03:00,
2013-05-01 02:08:00,53.0,51.0,30.26,ENE,57,3.0,6.0,93,0.00,,,0.00,Wunderground v.1.15,2013-05-01 06:08:00,
2013-05-01 02:13:00,53.0,51.0,30.26,NE,56,3.0,3.0,93,0.00,,,0.00,Wunderground v.1.15,2013-05-01 06:13:00,
2013-05-01 02:18:00,52.9,50.9,30.26,ENE,61,6.0,6.0,93,0.00,,,0.00,Wunderground v.1.15,2013-05-01 06:18:00,
2013-05-01 02:23:00,52.9,50.6,30.26,ENE,62,1.0,4.0,92,0.00,,,0.00,Wunderground v.1.15,2013-05-01 06:23:00,
2013-05-01 02:28:00,52.8,50.5,30.26,ENE,61,0.0,5.0,92,0.00,,,0.00,Wunderground v.1.15,2013-05-01 06:28:00,
2013-05-01 02:33:00,52.7,50.4,30.26,ENE,59,2.0,6.0,92,0.00,,,0.00,Wunderground v.1.15,2013-05-01 06:33:00,
2013-05-01 02:38:00,52.7,50.4,30.26,NE,53,3.0,6.0,92,0.00,,,0.00,Wunderground v.1.15,2013-05-01 06:38:00,
2013-05-01 02:43:00,52.5,50.2,30.26,NE,52,3.0,4.0,92,0.00,,,0.00,Wunderground v.1.15,2013-05-01 06:43:00,
2013-05-01 02:48:00,52.4,50.1,30.26,NE,52,0.0,4.0,92,0.00,,,0.00,Wunderground v.1.15,2013-05-01 06:48:00,
2013-05-01 02:53:00,52.2,49.9,30.27,NE,51,3.0,6.0,92,0.00,,,0.00,Wunderground v.1.15,2013-05-01 06:53:00,
2013-05-01 02:58:00,52.1,49.8,30.27,NE,51,1.0,6.0,92,0.00,,,0.00,Wunderground v.1.15,2013-05-01 06:58:00,
2013-05-01 03:03:00,51.9,49.9,30.27,NE,51,2.0,4.0,93,0.00,,,0.00,Wunderground v.1.15,2013-05-01 07:03:00,
2013-05-01 03:08:00,51.8,49.8,30.27,NE,49,1.0,6.0,93,0.00,,,0.00,Wunderground v.1.15,2013-05-01 07:08:00,
2013-05-01 03:13:00,51.8,49.8,30.27,NE,49,3.0,3.0,93,0.00,,,0.00,Wunderground v.1.15,2013-05-01 07:13:00,
2013-05-01 03:18:00,51.7,49.7,30.27,NE,53,1.0,5.0,93,0.00,,,0.00,Wunderground v.1.15,2013-05-01 07:18:00,
2013-05-01 03:23:00,51.7,49.7,30.27,NE,54,4.0,7.0,93,0.00,,,0.00,Wunderground v.1.15,2013-05-01 07:23:00,
2013-05-01 03:29:00,51.7,49.7,30.27,NE,53,2.0,7.0,93,0.00,,,0.00,Wunderground v.1.15,2013-05-01 07:29:00,
2013-05-01 03:34:00,51.7,49.7,30.27,NE,53,3.0,6.0,93,0.00,,,0.00,Wunderground v.1.15,2013-05-01 07:34:00,
2013-05-01 03:39:00,51.7,49.7,30.27,NE,47,4.0,7.0,93,0.00,,,0.00,Wunderground v.1.15,2013-05-01 07:39:00,
2013-05-01 03:44:00,51.7,49.7,30.27,NE,48,2.0,5.0,93,0.00,,,0.00,Wunderground v.1.15,2013-05-01 07:44:00,
2013-05-01 03:48:00,51.6,49.6,30.27,NE,36,2.0,9.0,93,0.00,,,0.00,Wunderground v.1.15,2013-05-01 07:48:00,
2013-05-01 03:54:00,51.5,49.5,30.27,NE,44,2.0,6.0,93,0.00,,,0.00,Wunderground v.1.15,2013-05-01 07:54:00,
2013-05-01 03:58:00,51.4,49.2,30.27,ENE,68,3.0,6.0,92,0.00,,,0.00,Wunderground v.1.15,2013-05-01 07:58:00,
2013-05-01 04:03:00,51.4,49.2,30.27,NE,51,4.0,7.0,92,0.00,,,0.00,Wunderground v.1.15,2013-05-01 08:03:00,
2013-05-01 04:09:00,51.3,49.1,30.27,NE,44,6.0,7.0,92,0.00,,,0.00,Wunderground v.1.15,2013-05-01 08:09:00,
2013-05-01 04:14:00,51.2,49.0,30.27,NE,38,2.0,7.0,92,0.00,,,0.00,Wunderground v.1.15,2013-05-01 08:14:00,
2013-05-01 04:19:00,51.2,49.0,30.28,NE,44,5.0,7.0,92,0.00,,,0.00,Wunderground v.1.15,2013-05-01 08:19:00,
2013-05-01 04:24:00,51.0,48.8,30.28,NE,41,4.0,6.0,92,0.00,,,0.00,Wunderground v.1.15,2013-05-01 08:24:00,
2013-05-01 04:29:00,50.9,48.7,30.28,NE,42,3.0,11.0,92,0.00,,,0.00,Wunderground v.1.15,2013-05-01 08:29:00,
2013-05-01 04:34:00,50.8,48.6,30.28,NE,44,3.0,6.0,92,0.00,,,0.00,Wunderground v.1.15,2013-05-01 08:34:00,
2013-05-01 04:39:00,50.6,48.4,30.28,NNE,32,3.0,9.0,92,0.00,,,0.00,Wunderground v.1.15,2013-05-01 08:39:00,
2013-05-01 04:44:00,50.6,48.4,30.28,NE,51,4.0,7.0,92,0.00,,,0.00,Wunderground v.1.15,2013-05-01 08:44:00,
2013-05-01 04:49:00,50.5,48.3,30.28,NE,47,4.0,8.0,92,0.00,,,0.00,Wunderground v.1.15,2013-05-01 08:49:00,
2013-05-01 04:54:00,50.5,48.3,30.28,NE,41,3.0,7.0,92,0.00,,,0.00,Wunderground v.1.15,2013-05-01 08:54:00,
2013-05-01 04:59:00,50.4,48.2,30.28,NE,42,3.0,7.0,92,0.00,,,0.00,Wunderground v.1.15,2013-05-01 08:59:00,
2013-05-01 05:04:00,50.3,48.1,30.28,NE,45,7.0,8.0,92,0.00,,,0.00,Wunderground v.1.15,2013-05-01 09:04:00,
2013-05-01 05:09:00,50.3,48.1,30.28,NNE,32,6.0,8.0,92,0.00,,,0.00,Wunderground v.1.15,2013-05-01 09:09:00,
2013-05-01 05:14:00,50.2,48.0,30.28,NNE,32,0.0,5.0,92,0.00,,,0.00,Wunderground v.1.15,2013-05-01 09:14:00,
2013-05-01 05:19:00,50.1,47.9,30.28,NE,34,6.0,9.0,92,0.00,,,0.00,Wunderground v.1.15,2013-05-01 09:19:00,
2013-05-01 05:24:00,50.0,47.8,30.28,NE,37,4.0,6.0,92,0.00,,,0.00,Wunderground v.1.15,2013-05-01 09:24:00,
2013-05-01 05:29:00,50.0,47.8,30.28,NE,40,4.0,8.0,92,0.00,,,0.00,Wunderground v.1.15,2013-05-01 09:29:00,
2013-05-01 05:34:00,49.9,47.7,30.28,NE,49,1.0,7.0,92,0.00,,,0.00,Wunderground v.1.15,2013-05-01 09:34:00,
2013-05-01 05:39:00,49.8,47.6,30.28,NE,40,4.0,7.0,92,0.00,,,0.00,Wunderground v.1.15,2013-05-01 09:39:00,
2013-05-01 05:44:00,49.8,47.6,30.28,NE,37,3.0,7.0,92,0.00,,,0.00,Wunderground v.1.15,2013-05-01 09:44:00,
2013-05-01 05:49:00,49.7,47.5,30.28,NE,37,3.0,7.0,92,0.00,,,0.00,Wunderground v.1.15,2013-05-01 09:49:00,
2013-05-01 05:54:00,49.6,47.4,30.28,NE,40,2.0,5.0,92,0.00,,,0.00,Wunderground v.1.15,2013-05-01 09:54:00,
2013-05-01 05:59:00,49.6,47.4,30.28,NE,40,4.0,7.0,92,0.00,,,0.00,Wunderground v.1.15,2013-05-01 09:59:00,
2013-05-01 06:04:00,49.6,47.4,30.29,NNE,32,4.0,9.0,92,0.00,,,0.00,Wunderground v.1.15,2013-05-01 10:04:00,
2013-05-01 06:09:00,49.5,47.3,30.29,NE,36,1.0,9.0,92,0.00,,,0.00,Wunderground v.1.15,2013-05-01 10:09:00,
2013-05-01 06:14:00,49.5,47.3,30.29,NE,36,3.0,6.0,92,0.00,,,0.00,Wunderground v.1.15,2013-05-01 10:14:00,
2013-05-01 06:19:00,49.5,47.3,30.29,NE,39,2.0,7.0,92,0.00,,,0.00,Wunderground v.1.15,2013-05-01 10:19:00,
2013-05-01 06:24:00,49.5,47.3,30.30,NE,47,5.0,7.0,92,0.00,,,0.00,Wunderground v.1.15,2013-05-01 10:24:00,
2013-05-01 06:29:00,49.5,47.3,30.30,NE,55,2.0,7.0,92,0.00,,,0.00,Wunderground v.1.15,2013-05-01 10:29:00,
2013-05-01 06:34:00,49.6,47.4,30.30,ENE,60,2.0,5.0,92,0.00,,,0.00,Wunderground v.1.15,2013-05-01 10:34:00,
2013-05-01 06:40:00,49.6,47.4,30.30,ENE,58,5.0,5.0,92,0.00,,,0.00,Wunderground v.1.15,2013-05-01 10:40:00,
2013-05-01 06:45:00,49.7,47.5,30.30,NE,53,2.0,7.0,92,0.00,,,0.00,Wunderground v.1.15,2013-05-01 10:45:00,
2013-05-01 06:50:00,49.7,47.2,30.30,NE,53,7.0,7.0,91,0.00,,,0.00,Wunderground v.1.15,2013-05-01 10:50:00,
2013-05-01 06:55:00,49.8,47.3,30.30,NE,53,1.0,7.0,91,0.00,,,0.00,Wunderground v.1.15,2013-05-01 10:55:00,
2013-05-01 07:00:00,49.9,47.4,30.31,NE,55,3.0,3.0,91,0.00,,,0.00,Wunderground v.1.15,2013-05-01 11:00:00,
2013-05-01 07:05:00,50.1,47.6,30.31,NE,49,4.0,7.0,91,0.00,,,0.00,Wunderground v.1.15,2013-05-01 11:05:00,
2013-05-01 07:10:00,50.3,47.5,30.31,ENE,63,2.0,3.0,90,0.00,,,0.00,Wunderground v.1.15,2013-05-01 11:10:00,
2013-05-01 07:15:00,50.4,47.6,30.31,NE,55,3.0,7.0,90,0.00,,,0.00,Wunderground v.1.15,2013-05-01 11:15:00,
2013-05-01 07:20:00,50.5,47.7,30.31,ENE,58,3.0,3.0,90,0.00,,,0.00,Wunderground v.1.15,2013-05-01 11:20:00,
2013-05-01 07:25:00,50.7,47.6,30.31,NE,53,1.0,7.0,89,0.00,,,0.00,Wunderground v.1.15,2013-05-01 11:25:00,
2013-05-01 07:30:00,50.9,47.8,30.31,NE,53,2.0,4.0,89,0.00,,,0.00,Wunderground v.1.15,2013-05-01 11:30:00,
2013-05-01 07:35:00,51.1,48.0,30.32,NE,51,5.0,5.0,89,0.00,,,0.00,Wunderground v.1.15,2013-05-01 11:35:00,
2013-05-01 07:40:00,51.5,48.1,30.32,NE,43,1.0,4.0,88,0.00,,,0.00,Wunderground v.1.15,2013-05-01 11:40:00,
2013-05-01 07:45:00,51.8,48.4,30.32,NE,44,5.0,7.0,88,0.00,,,0.00,Wunderground v.1.15,2013-05-01 11:45:00,
2013-05-01 07:50:00,52.1,48.3,30.32,NE,49,3.0,6.0,87,0.00,,,0.00,Wunderground v.1.15,2013-05-01 11:50:00,
2013-05-01 07:55:00,52.5,48.7,30.32,ENE,65,3.0,10.0,87,0.00,,,0.00,Wunderground v.1.15,2013-05-01 11:55:00,
2013-05-01 08:00:00,52.8,48.7,30.32,ENE,61,3.0,7.0,86,0.00,,,0.00,Wunderground v.1.15,2013-05-01 12:00:00,
2013-05-01 08:05:00,53.2,48.8,30.33,NE,39,2.0,8.0,85,0.00,,,0.00,Wunderground v.1.15,2013-05-01 12:05:00,
2013-05-01 08:10:00,53.4,49.0,30.33,NE,51,2.0,4.0,85,0.00,,,0.00,Wunderground v.1.15,2013-05-01 12:10:00,
2013-05-01 08:15:00,53.7,49.0,30.33,NE,41,3.0,9.0,84,0.00,,,0.00,Wunderground v.1.15,2013-05-01 12:15:00,
2013-05-01 08:20:00,53.9,48.9,30.33,NE,38,5.0,7.0,83,0.00,,,0.00,Wunderground v.1.15,2013-05-01 12:20:00,
2013-05-01 08:25:00,54.2,49.1,30.33,NE,45,3.0,7.0,83,0.00,,,0.00,Wunderground v.1.15,2013-05-01 12:25:00,
2013-05-01 08:30:00,54.5,49.4,30.33,NE,48,3.0,4.0,83,0.00,,,0.00,Wunderground v.1.15,2013-05-01 12:30:00,
2013-05-01 08:35:00,54.9,49.8,30.33,ENE,66,1.0,7.0,83,0.00,,,0.00,Wunderground v.1.15,2013-05-01 12:35:00,
2013-05-01 08:40:00,55.2,50.1,30.34,ENE,68,3.0,7.0,83,0.00,,,0.00,Wunderground v.1.15,2013-05-01 12:40:00,
2013-05-01 08:46:00,55.6,50.5,30.34,NE,49,4.0,7.0,83,0.00,,,0.00,Wunderground v.1.15,2013-05-01 12:46:00,
2013-05-01 08:51:00,55.9,50.5,30.34,NE,37,6.0,8.0,82,0.00,,,0.00,Wunderground v.1.15,2013-05-01 12:51:00,
2013-05-01 08:56:00,56.0,50.3,30.34,ENE,60,3.0,10.0,81,0.00,,,0.00,Wunderground v.1.15,2013-05-01 12:56:00,
2013-05-01 09:01:00,56.2,50.4,30.34,ENE,75,3.0,5.0,81,0.00,,,0.00,Wunderground v.1.15,2013-05-01 13:01:00,
2013-05-01 09:06:00,56.5,50.7,30.34,NE,46,5.0,7.0,81,0.00,,,0.00,Wunderground v.1.15,2013-05-01 13:06:00,
2013-05-01 09:11:00,56.8,51.0,30.35,NE,42,2.0,4.0,81,0.00,,,0.00,Wunderground v.1.15,2013-05-01 13:11:00,
2013-05-01 09:16:00,57.1,51.3,30.35,ENE,63,2.0,8.0,81,0.00,,,0.00,Wunderground v.1.15,2013-05-01 13:16:00,
2013-05-01 09:21:00,57.5,51.7,30.35,NE,51,4.0,5.0,81,0.00,,,0.00,Wunderground v.1.15,2013-05-01 13:21:00,
2013-05-01 09:26:00,57.7,51.6,30.35,ENE,63,2.0,10.0,80,0.00,,,0.00,Wunderground v.1.15,2013-05-01 13:26:00,
2013-05-01 09:31:00,57.9,51.8,30.35,NE,45,8.0,8.0,80,0.00,,,0.00,Wunderground v.1.15,2013-05-01 13:31:00,
2013-05-01 09:36:00,58.1,52.0,30.35,NE,34,2.0,10.0,80,0.00,,,0.00,Wunderground v.1.15,2013-05-01 13:36:00,
2013-05-01 09:41:00,58.5,52.0,30.35,NE,36,2.0,7.0,79,0.00,,,0.00,Wunderground v.1.15,2013-05-01 13:41:00,
2013-05-01 09:46:00,58.8,52.6,30.35,NE,35,3.0,7.0,80,0.00,,,0.00,Wunderground v.1.15,2013-05-01 13:46:00,
2013-05-01 09:51:00,59.0,52.1,30.36,ENE,59,4.0,6.0,78,0.00,,,0.00,Wunderground v.1.15,2013-05-01 13:51:00,
2013-05-01 09:56:00,59.3,52.8,30.36,ENE,63,1.0,6.0,79,0.00,,,0.00,Wunderground v.1.15,2013-05-01 13:56:00,
2013-05-01 10:01:00,59.6,52.7,30.36,NE,45,3.0,5.0,78,0.00,,,0.00,Wunderground v.1.15,2013-05-01 14:01:00,
2013-05-01 10:06:00,59.9,53.0,30.36,NE,55,2.0,7.0,78,0.00,,,0.00,Wunderground v.1.15,2013-05-01 14:06:00,
2013-05-01 10:11:00,60.2,52.6,30.36,NE,45,3.0,5.0,76,0.00,,,0.00,Wunderground v.1.15,2013-05-01 14:11:00,
2013-05-01 10:16:00,60.5,52.9,30.36,ENE,70,2.0,6.0,76,0.00,,,0.00,Wunderground v.1.15,2013-05-01 14:16:00,
2013-05-01 10:21:00,60.9,53.6,30.36,NNE,18,2.0,6.0,77,0.00,,,0.00,Wunderground v.1.15,2013-05-01 14:21:00,
2013-05-01 10:26:00,61.3,54.0,30.36,ENE,71,3.0,8.0,77,0.00,,,0.00,Wunderground v.1.15,2013-05-01 14:26:00,
2013-05-01 10:31:00,61.6,53.6,30.37,ENE,76,8.0,8.0,75,0.00,,,0.00,Wunderground v.1.15,2013-05-01 14:31:00,
2013-05-01 10:36:00,61.9,53.5,30.37,NNE,18,2.0,10.0,74,0.00,,,0.00,Wunderground v.1.15,2013-05-01 14:36:00,
2013-05-01 10:41:00,62.1,53.3,30.37,ENE,57,0.0,3.0,73,0.00,,,0.00,Wunderground v.1.15,2013-05-01 14:41:00,
2013-05-01 10:46:00,62.3,53.2,30.37,NNE,30,2.0,10.0,72,0.00,,,0.00,Wunderground v.1.15,2013-05-01 14:46:00,
2013-05-01 10:51:00,62.5,53.7,30.37,ENE,66,7.0,7.0,73,0.00,,,0.00,Wunderground v.1.15,2013-05-01 14:51:00,
2013-05-01 10:56:00,62.9,53.7,30.37,ENE,58,2.0,7.0,72,0.00,,,0.00,Wunderground v.1.15,2013-05-01 14:56:00,
2013-05-01 11:01:00,63.0,53.1,30.37,NNE,28,4.0,6.0,70,0.00,,,0.00,Wunderground v.1.15,2013-05-01 15:01:00,
2013-05-01 11:06:00,63.1,53.5,30.37,ESE,105,4.0,9.0,71,0.00,,,0.00,Wunderground v.1.15,2013-05-01 15:06:00,
2013-05-01 11:11:00,63.5,54.3,30.37,SE,128,3.0,6.0,72,0.00,,,0.00,Wunderground v.1.15,2013-05-01 15:11:00,
2013-05-01 11:16:00,63.8,53.4,30.37,East,91,0.0,7.0,69,0.00,,,0.00,Wunderground v.1.15,2013-05-01 15:16:00,
2013-05-01 11:22:00,64.2,54.6,30.36,NNE,32,5.0,5.0,71,0.00,,,0.00,Wunderground v.1.15,2013-05-01 15:22:00,
2013-05-01 11:27:00,64.5,54.1,30.36,SE,134,2.0,6.0,69,0.00,,,0.00,Wunderground v.1.15,2013-05-01 15:27:00,
2013-05-01 11:32:00,65.0,54.6,30.36,SE,126,2.0,3.0,69,0.00,,,0.00,Wunderground v.1.15,2013-05-01 15:32:00,
2013-05-01 11:37:00,65.4,53.3,30.37,East,92,1.0,6.0,65,0.00,,,0.00,Wunderground v.1.15,2013-05-01 15:37:00,
2013-05-01 11:42:00,65.8,54.5,30.36,East,84,1.0,3.0,67,0.00,,,0.00,Wunderground v.1.15,2013-05-01 15:42:00,
2013-05-01 11:47:00,65.9,52.9,30.36,ENE,74,0.0,10.0,63,0.00,,,0.00,Wunderground v.1.15,2013-05-01 15:47:00,
2013-05-01 11:52:00,66.1,53.1,30.36,NE,51,1.0,6.0,63,0.00,,,0.00,Wunderground v.1.15,2013-05-01 15:52:00,
2013-05-01 11:57:00,66.4,54.3,30.36,ESE,123,2.0,6.0,65,0.00,,,0.00,Wunderground v.1.15,2013-05-01 15:57:00,
2013-05-01 12:02:00,66.1,52.3,30.36,ESE,105,2.0,6.0,61,0.00,,,0.00,Wunderground v.1.15,2013-05-01 16:02:00,
2013-05-01 12:08:00,66.0,52.6,30.36,SSE,156,2.0,7.0,62,0.00,,,0.00,Wunderground v.1.15,2013-05-01 16:08:00,
2013-05-01 12:13:00,66.4,53.4,30.36,ENE,59,2.0,5.0,63,0.00,,,0.00,Wunderground v.1.15,2013-05-01 16:13:00,
2013-05-01 12:18:00,66.6,53.6,30.36,ESE,104,2.0,5.0,63,0.00,,,0.00,Wunderground v.1.15,2013-05-01 16:18:00,
2013-05-01 12:23:00,66.6,53.2,30.36,ESE,115,3.0,9.0,62,0.00,,,0.00,Wunderground v.1.15,2013-05-01 16:23:00,
2013-05-01 12:28:00,66.7,53.3,30.36,ESE,105,1.0,9.0,62,0.00,,,0.00,Wunderground v.1.15,2013-05-01 16:28:00,
2013-05-01 12:33:00,66.9,53.0,30.36,ESE,114,0.0,5.0,61,0.00,,,0.00,Wunderground v.1.15,2013-05-01 16:33:00,
2013-05-01 12:38:00,66.7,51.9,30.36,SSE,149,2.0,10.0,59,0.00,,,0.00,Wunderground v.1.15,2013-05-01 16:38:00,
2013-05-01 12:43:00,66.6,52.3,30.35,SE,126,1.0,7.0,60,0.00,,,0.00,Wunderground v.1.15,2013-05-01 16:43:00,
2013-05-01 12:48:00,66.8,52.0,30.35,SE,132,2.0,7.0,59,0.00,,,0.00,Wunderground v.1.15,2013-05-01 16:48:00,
2013-05-01 12:54:00,66.8,52.0,30.35,SE,144,3.0,6.0,59,0.00,,,0.00,Wunderground v.1.15,2013-05-01 16:54:00,
2013-05-01 12:59:00,67.0,52.2,30.35,ESE,121,7.0,9.0,59,0.00,,,0.00,Wunderground v.1.15,2013-05-01 16:59:00,
2013-05-01 13:04:00,67.1,53.2,30.35,ESE,113,0.0,5.0,61,0.00,,,0.00,Wunderground v.1.15,2013-05-01 17:04:00,
2013-05-01 13:09:00,67.2,53.3,30.35,ESE,103,1.0,10.0,61,0.00,,,0.00,Wunderground v.1.15,2013-05-01 17:09:00,
2013-05-01 13:14:00,67.2,53.3,30.35,ESE,115,0.0,4.0,61,0.00,,,0.00,Wunderground v.1.15,2013-05-01 17:14:00,
2013-05-01 13:19:00,67.7,53.8,30.35,SE,132,1.0,6.0,61,0.00,,,0.00,Wunderground v.1.15,2013-05-01 17:19:00,
2013-05-01 13:24:00,68.0,53.6,30.35,SE,144,2.0,4.0,60,0.00,,,0.00,Wunderground v.1.15,2013-05-01 17:24:00,
2013-05-01 13:28:00,68.3,52.5,30.35,ESE,120,3.0,5.0,57,0.00,,,0.00,Wunderground v.1.15,2013-05-01 17:28:00,
2013-05-01 13:34:00,68.3,52.5,30.35,South,171,1.0,4.0,57,0.00,,,0.00,Wunderground v.1.15,2013-05-01 17:34:00,
2013-05-01 13:39:00,68.4,52.6,30.35,East,92,2.0,5.0,57,0.00,,,0.00,Wunderground v.1.15,2013-05-01 17:39:00,
2013-05-01 13:44:00,68.6,52.3,30.36,ESE,105,0.0,6.0,56,0.00,,,0.00,Wunderground v.1.15,2013-05-01 17:44:00,
2013-05-01 13:49:00,68.7,53.8,30.35,East,95,1.0,6.0,59,0.00,,,0.00,Wunderground v.1.15,2013-05-01 17:49:00,
2013-05-01 13:54:00,68.8,51.5,30.35,SE,126,1.0,5.0,54,0.00,,,0.00,Wunderground v.1.15,2013-05-01 17:54:00,
2013-05-01 13:59:00,68.9,51.6,30.35,ESE,115,2.0,5.0,54,0.00,,,0.00,Wunderground v.1.15,2013-05-01 17:59:00,
2013-05-01 14:04:00,68.9,52.1,30.35,East,101,1.0,5.0,55,0.00,,,0.00,Wunderground v.1.15,2013-05-01 18:04:00,
2013-05-01 14:09:00,68.9,52.6,30.35,SE,125,0.0,5.0,56,0.00,,,0.00,Wunderground v.1.15,2013-05-01 18:09:00,
2013-05-01 14:14:00,68.9,51.1,30.35,SE,129,2.0,4.0,53,0.00,,,0.00,Wunderground v.1.15,2013-05-01 18:14:00,
2013-05-01 14:19:00,68.8,51.0,30.35,SSE,159,2.0,5.0,53,0.00,,,0.00,Wunderground v.1.15,2013-05-01 18:19:00,
2013-05-01 14:24:00,68.9,52.6,30.35,East,96,4.0,9.0,56,0.00,,,0.00,Wunderground v.1.15,2013-05-01 18:24:00,
2013-05-01 14:29:00,68.5,50.7,30.35,SE,125,0.0,9.0,53,0.00,,,0.00,Wunderground v.1.15,2013-05-01 18:29:00,
2013-05-01 14:34:00,68.5,52.2,30.35,SE,144,3.0,6.0,56,0.00,,,0.00,Wunderground v.1.15,2013-05-01 18:34:00,
2013-05-01 14:39:00,68.8,52.5,30.35,SE,130,0.0,6.0,56,0.00,,,0.00,Wunderground v.1.15,2013-05-01 18:39:00,
2013-05-01 14:44:00,68.5,50.7,30.35,SE,141,2.0,7.0,53,0.00,,,0.00,Wunderground v.1.15,2013-05-01 18:44:00,
2013-05-01 14:49:00,68.5,51.7,30.35,SE,134,4.0,7.0,55,0.00,,,0.00,Wunderground v.1.15,2013-05-01 18:49:00,
2013-05-01 14:54:00,68.4,52.1,30.35,SE,144,3.0,5.0,56,0.00,,,0.00,Wunderground v.1.15,2013-05-01 18:54:00,
2013-05-01 14:59:00,68.3,51.5,30.35,ENE,64,0.0,5.0,55,0.00,,,0.00,Wunderground v.1.15,2013-05-01 18:59:00,
2013-05-01 15:04:00,68.1,49.8,30.36,East,92,1.0,7.0,52,0.00,,,0.00,Wunderground v.1.15,2013-05-01 19:04:00,
2013-05-01 15:09:00,68.3,51.5,30.36,SE,142,2.0,9.0,55,0.00,,,0.00,Wunderground v.1.15,2013-05-01 19:09:00,
2013-05-01 15:14:00,67.9,50.1,30.36,East,99,4.0,6.0,53,0.00,,,0.00,Wunderground v.1.15,2013-05-01 19:14:00,
2013-05-01 15:19:00,68.0,51.2,30.35,SE,133,3.0,6.0,55,0.00,,,0.00,Wunderground v.1.15,2013-05-01 19:19:00,
2013-05-01 15:24:00,68.3,51.0,30.35,SE,146,4.0,7.0,54,0.00,,,0.00,Wunderground v.1.15,2013-05-01 19:24:00,
2013-05-01 15:29:00,68.2,51.4,30.35,East,98,2.0,7.0,55,0.00,,,0.00,Wunderground v.1.15,2013-05-01 19:29:00,
2013-05-01 15:34:00,68.4,50.1,30.35,SE,139,2.0,10.0,52,0.00,,,0.00,Wunderground v.1.15,2013-05-01 19:34:00,
2013-05-01 15:39:00,68.4,49.6,30.35,ENE,63,2.0,10.0,51,0.00,,,0.00,Wunderground v.1.15,2013-05-01 19:39:00,
2013-05-01 15:44:00,68.3,48.4,30.35,SSE,150,3.0,5.0,49,0.00,,,0.00,Wunderground v.1.15,2013-05-01 19:44:00,
2013-05-01 15:49:00,68.1,49.3,30.35,East,100,1.0,6.0,51,0.00,,,0.00,Wunderground v.1.15,2013-05-01 19:49:00,
2013-05-01 15:54:00,68.1,49.3,30.35,East,97,2.0,7.0,51,0.00,,,0.00,Wunderground v.1.15,2013-05-01 19:54:00,
2013-05-01 16:00:00,68.0,49.7,30.35,SE,132,0.0,3.0,52,0.00,,,0.00,Wunderground v.1.15,2013-05-01 20:00:00,
2013-05-01 16:05:00,68.2,48.8,30.35,SSE,149,6.0,6.0,50,0.00,,,0.00,Wunderground v.1.15,2013-05-01 20:05:00,
2013-05-01 16:10:00,68.1,48.8,30.35,SSE,164,5.0,5.0,50,0.00,,,0.00,Wunderground v.1.15,2013-05-01 20:10:00,
2013-05-01 16:15:00,67.9,49.1,30.35,SE,142,1.0,5.0,51,0.00,,,0.00,Wunderground v.1.15,2013-05-01 20:15:00,
2013-05-01 16:20:00,67.9,49.1,30.35,SE,136,1.0,2.0,51,0.00,,,0.00,Wunderground v.1.15,2013-05-01 20:20:00,
2013-05-01 16:25:00,68.1,51.3,30.35,East,99,3.0,4.0,55,0.00,,,0.00,Wunderground v.1.15,2013-05-01 20:25:00,
2013-05-01 16:30:00,68.4,50.1,30.35,SSE,150,4.0,4.0,52,0.00,,,0.00,Wunderground v.1.15,2013-05-01 20:30:00,
2013-05-01 16:35:00,68.4,52.1,30.35,ESE,106,1.0,5.0,56,0.00,,,0.00,Wunderground v.1.15,2013-05-01 20:35:00,
2013-05-01 16:40:00,68.3,52.0,30.35,ESE,121,2.0,2.0,56,0.00,,,0.00,Wunderground v.1.15,2013-05-01 20:40:00,
2013-05-01 16:45:00,68.1,51.3,30.36,ESE,121,1.0,4.0,55,0.00,,,0.00,Wunderground v.1.15,2013-05-01 20:45:00,
2013-05-01 16:50:00,68.0,51.2,30.36,SE,124,2.0,3.0,55,0.00,,,0.00,Wunderground v.1.15,2013-05-01 20:50:00,
2013-05-01 16:55:00,68.1,53.2,30.36,ESE,123,2.0,4.0,59,0.00,,,0.00,Wunderground v.1.15,2013-05-01 20:55:00,
2013-05-01 17:00:00,68.2,51.9,30.36,ESE,123,1.0,1.0,56,0.00,,,0.00,Wunderground v.1.15,2013-05-01 21:00:00,
2013-05-01 17:05:00,68.3,51.5,30.35,ESE,117,0.0,5.0,55,0.00,,,0.00,Wunderground v.1.15,2013-05-01 21:05:00,
2013-05-01 17:10:00,68.4,51.6,30.35,ESE,109,3.0,3.0,55,0.00,,,0.00,Wunderground v.1.15,2013-05-01 21:10:00,
2013-05-01 17:15:00,68.4,51.6,30.35,ESE,103,3.0,7.0,55,0.00,,,0.00,Wunderground v.1.15,2013-05-01 21:15:00,
2013-05-01 17:20:00,68.3,52.9,30.36,South,175,3.0,3.0,58,0.00,,,0.00,Wunderground v.1.15,2013-05-01 21:20:00,
2013-05-01 17:25:00,68.3,53.9,30.36,ESE,115,1.0,8.0,60,0.00,,,0.00,Wunderground v.1.15,2013-05-01 21:25:00,
2013-05-01 17:30:00,68.1,53.7,30.36,SE,132,0.0,2.0,60,0.00,,,0.00,Wunderground v.1.15,2013-05-01 21:30:00,
2013-05-01 17:35:00,67.9,54.0,30.36,ESE,115,3.0,7.0,61,0.00,,,0.00,Wunderground v.1.15,2013-05-01 21:35:00,
2013-05-01 17:40:00,67.6,55.0,30.36,SE,126,3.0,4.0,64,0.00,,,0.00,Wunderground v.1.15,2013-05-01 21:40:00,
2013-05-01 17:45:00,67.2,55.5,30.36,SE,143,3.0,6.0,66,0.00,,,0.00,Wunderground v.1.15,2013-05-01 21:45:00,
2013-05-01 17:50:00,66.8,53.8,30.36,ESE,117,2.0,2.0,63,0.00,,,0.00,Wunderground v.1.15,2013-05-01 21:50:00,
2013-05-01 17:55:00,66.4,53.8,30.36,East,99,1.0,4.0,64,0.00,,,0.00,Wunderground v.1.15,2013-05-01 21:55:00,
2013-05-01 18:00:00,66.2,53.2,30.36,ESE,111,2.0,3.0,63,0.00,,,0.00,Wunderground v.1.15,2013-05-01 22:00:00,
2013-05-01 18:05:00,66.1,54.4,30.36,SE,128,0.0,5.0,66,0.00,,,0.00,Wunderground v.1.15,2013-05-01 22:05:00,
2013-05-01 18:10:00,65.8,53.3,30.37,ESE,107,4.0,4.0,64,0.00,,,0.00,Wunderground v.1.15,2013-05-01 22:10:00,
2013-05-01 18:15:00,65.5,53.8,30.37,ESE,102,0.0,4.0,66,0.00,,,0.00,Wunderground v.1.15,2013-05-01 22:15:00,
2013-05-01 18:20:00,65.4,54.6,30.37,SE,138,2.0,6.0,68,0.00,,,0.00,Wunderground v.1.15,2013-05-01 22:20:00,
2013-05-01 18:25:00,65.3,53.6,30.37,SE,132,0.0,6.0,66,0.00,,,0.00,Wunderground v.1.15,2013-05-01 22:25:00,
2013-05-01 18:30:00,65.3,52.8,30.37,SE,132,1.0,1.0,64,0.00,,,0.00,Wunderground v.1.15,2013-05-01 22:30:00,
2013-05-01 18:36:00,65.3,53.2,30.37,SE,132,0.0,2.0,65,0.00,,,0.00,Wunderground v.1.15,2013-05-01 22:36:00,
2013-05-01 18:41:00,65.0,52.1,30.37,ESE,119,1.0,2.0,63,0.00,,,0.00,Wunderground v.1.15,2013-05-01 22:41:00,
2013-05-01 18:46:00,64.8,50.6,30.37,ESE,121,1.0,4.0,60,0.00,,,0.00,Wunderground v.1.15,2013-05-01 22:46:00,
2013-05-01 18:51:00,64.7,50.9,30.37,ESE,111,0.0,3.0,61,0.00,,,0.00,Wunderground v.1.15,2013-05-01 22:51:00,
2013-05-01 18:56:00,64.4,50.2,30.37,ENE,67,3.0,4.0,60,0.00,,,0.00,Wunderground v.1.15,2013-05-01 22:56:00,
2013-05-01 19:01:00,64.2,50.5,30.37,East,95,1.0,2.0,61,0.00,,,0.00,Wunderground v.1.15,2013-05-01 23:01:00,
2013-05-01 19:06:00,64.0,50.3,30.37,ENE,59,0.0,6.0,61,0.00,,,0.00,Wunderground v.1.15,2013-05-01 23:06:00,
2013-05-01 19:11:00,63.6,49.0,30.37,NE,51,0.0,4.0,59,0.00,,,0.00,Wunderground v.1.15,2013-05-01 23:11:00,
2013-05-01 19:16:00,63.4,49.3,30.37,South,190,2.0,4.0,60,0.00,,,0.00,Wunderground v.1.15,2013-05-01 23:16:00,
2013-05-01 19:21:00,63.1,49.0,30.37,South,191,2.0,3.0,60,0.00,,,0.00,Wunderground v.1.15,2013-05-01 23:21:00,
2013-05-01 19:26:00,62.8,48.3,30.37,WSW,250,0.0,4.0,59,0.00,,,0.00,Wunderground v.1.15,2013-05-01 23:26:00,
2013-05-01 19:31:00,62.3,48.2,30.37,WSW,250,2.0,2.0,60,0.00,,,0.00,Wunderground v.1.15,2013-05-01 23:31:00,
2013-05-01 19:36:00,62.0,48.4,30.37,WSW,250,1.0,5.0,61,0.00,,,0.00,Wunderground v.1.15,2013-05-01 23:36:00,
2013-05-01 19:41:00,61.6,48.0,30.37,WSW,258,0.0,1.0,61,0.00,,,0.00,Wunderground v.1.15,2013-05-01 23:41:00,
2013-05-01 19:46:00,61.2,48.1,30.37,West,259,0.0,5.0,62,0.00,,,0.00,Wunderground v.1.15,2013-05-01 23:46:00,
2013-05-01 19:51:00,60.7,48.4,30.37,West,259,0.0,1.0,64,0.00,,,0.00,Wunderground v.1.15,2013-05-01 23:51:00,
2013-05-01 19:56:00,60.2,48.4,30.37,West,261,0.0,3.0,65,0.00,,,0.00,Wunderground v.1.15,2013-05-01 23:56:00,
2013-05-01 20:01:00,59.7,48.3,30.37,East,91,1.0,1.0,66,0.00,,,0.00,Wunderground v.1.15,2013-05-02 00:01:00,
2013-05-01 20:06:00,59.3,48.7,30.37,East,92,0.0,1.0,68,0.00,,,0.00,Wunderground v.1.15,2013-05-02 00:06:00,
2013-05-01 20:11:00,59.0,48.8,30.37,East,95,2.0,2.0,69,0.00,,,0.00,Wunderground v.1.15,2013-05-02 00:11:00,
2013-05-01 20:16:00,58.7,50.1,30.37,East,101,0.0,3.0,73,0.00,,,0.00,Wunderground v.1.15,2013-05-02 00:16:00,
2013-05-01 20:21:00,58.3,50.0,30.37,ENE,57,0.0,1.0,74,0.00,,,0.00,Wunderground v.1.15,2013-05-02 00:21:00,
2013-05-01 20:26:00,57.9,50.4,30.37,East,80,1.0,4.0,76,0.00,,,0.00,Wunderground v.1.15,2013-05-02 00:26:00,
2013-05-01 20:31:00,57.5,50.0,30.37,ESE,109,0.0,4.0,76,0.00,,,0.00,Wunderground v.1.15,2013-05-02 00:31:00,
2013-05-01 20:36:00,57.3,50.1,30.37,East,92,0.0,9.0,77,0.00,,,0.00,Wunderground v.1.15,2013-05-02 00:36:00,
2013-05-01 20:41:00,57.0,50.5,30.38,NNE,25,1.0,4.0,79,0.00,,,0.00,Wunderground v.1.15,2013-05-02 00:41:00,
2013-05-01 20:46:00,56.9,50.8,30.38,ESE,112,2.0,4.0,80,0.00,,,0.00,Wunderground v.1.15,2013-05-02 00:46:00,
2013-05-01 20:51:00,56.6,50.8,30.39,SE,136,0.0,1.0,81,0.00,,,0.00,Wunderground v.1.15,2013-05-02 00:51:00,
2013-05-01 20:56:00,56.4,50.6,30.39,ESE,119,2.0,5.0,81,0.00,,,0.00,Wunderground v.1.15,2013-05-02 00:56:00,
2013-05-01 21:01:00,56.2,50.8,30.40,ESE,106,3.0,4.0,82,0.00,,,0.00,Wunderground v.1.15,2013-05-02 01:01:00,
2013-05-01 21:06:00,55.9,50.5,30.39,SE,137,0.0,5.0,82,0.00,,,0.00,Wunderground v.1.15,2013-05-02 01:06:00,
2013-05-01 21:11:00,55.7,50.6,30.39,SE,137,1.0,2.0,83,0.00,,,0.00,Wunderground v.1.15,2013-05-02 01:11:00,
2013-05-01 21:16:00,55.5,50.4,30.40,SE,138,0.0,2.0,83,0.00,,,0.00,Wunderground v.1.15,2013-05-02 01:16:00,
2013-05-01 21:21:00,55.3,50.5,30.40,NE,44,0.0,1.0,84,0.00,,,0.00,Wunderground v.1.15,2013-05-02 01:21:00,
2013-05-01 21:26:00,55.1,50.4,30.40,NE,44,0.0,2.0,84,0.00,,,0.00,Wunderground v.1.15,2013-05-02 01:26:00,
2013-05-01 21:31:00,54.9,50.5,30.40,NE,51,0.0,2.0,85,0.00,,,0.00,Wunderground v.1.15,2013-05-02 01:31:00,
2013-05-01 21:36:00,54.7,50.3,30.40,NE,52,1.0,2.0,85,0.00,,,0.00,Wunderground v.1.15,2013-05-02 01:36:00,
2013-05-01 21:41:00,54.4,50.0,30.40,ENE,72,2.0,2.0,85,0.00,,,0.00,Wunderground v.1.15,2013-05-02 01:41:00,
2013-05-01 21:46:00,54.2,49.8,30.40,ENE,67,0.0,3.0,85,0.00,,,0.00,Wunderground v.1.15,2013-05-02 01:46:00,
2013-05-01 21:51:00,54.0,49.6,30.40,ENE,65,0.0,1.0,85,0.00,,,0.00,Wunderground v.1.15,2013-05-02 01:51:00,
2013-05-01 21:56:00,53.8,49.7,30.40,ENE,61,0.0,3.0,86,0.00,,,0.00,Wunderground v.1.15,2013-05-02 01:56:00,
2013-05-01 22:01:00,53.7,49.6,30.40,ESE,114,0.0,3.0,86,0.00,,,0.00,Wunderground v.1.15,2013-05-02 02:01:00,
2013-05-01 22:06:00,53.5,49.7,30.40,ESE,112,1.0,3.0,87,0.00,,,0.00,Wunderground v.1.15,2013-05-02 02:06:00,
2013-05-01 22:11:00,53.4,49.6,30.40,East,98,0.0,2.0,87,0.00,,,0.00,Wunderground v.1.15,2013-05-02 02:11:00,
2013-05-01 22:16:00,53.2,49.4,30.40,ENE,63,0.0,4.0,87,0.00,,,0.00,Wunderground v.1.15,2013-05-02 02:16:00,
2013-05-01 22:21:00,53.1,49.6,30.40,ENE,65,0.0,3.0,88,0.00,,,0.00,Wunderground v.1.15,2013-05-02 02:21:00,
2013-05-01 22:26:00,53.0,49.5,30.39,ENE,63,2.0,4.0,88,0.00,,,0.00,Wunderground v.1.15,2013-05-02 02:26:00,
2013-05-01 22:31:00,52.8,49.6,30.39,ENE,61,1.0,4.0,89,0.00,,,0.00,Wunderground v.1.15,2013-05-02 02:31:00,
2013-05-01 22:36:00,52.7,49.5,30.39,ENE,59,0.0,6.0,89,0.00,,,0.00,Wunderground v.1.15,2013-05-02 02:36:00,
2013-05-01 22:41:00,52.6,49.8,30.39,East,84,1.0,5.0,90,0.00,,,0.00,Wunderground v.1.15,2013-05-02 02:41:00,
2013-05-01 22:46:00,52.5,49.7,30.38,ENE,72,1.0,5.0,90,0.00,,,0.00,Wunderground v.1.15,2013-05-02 02:46:00,
2013-05-01 22:51:00,52.4,49.6,30.38,ENE,59,0.0,4.0,90,0.00,,,0.00,Wunderground v.1.15,2013-05-02 02:51:00,
2013-05-01 22:56:00,52.3,49.8,30.38,ENE,67,0.0,5.0,91,0.00,,,0.00,Wunderground v.1.15,2013-05-02 02:56:00,
2013-05-01 23:01:00,52.2,49.7,30.38,ENE,57,0.0,5.0,91,0.00,,,0.00,Wunderground v.1.15,2013-05-02 03:01:00,
2013-05-01 23:06:00,52.2,49.7,30.38,ENE,73,0.0,5.0,91,0.00,,,0.00,Wunderground v.1.15,2013-05-02 03:06:00,
2013-05-01 23:11:00,52.2,49.7,30.38,NE,47,2.0,4.0,91,0.00,,,0.00,Wunderground v.1.15,2013-05-02 03:11:00,
2013-05-01 23:16:00,52.0,49.5,30.38,NE,55,3.0,6.0,91,0.00,,,0.00,Wunderground v.1.15,2013-05-02 03:16:00,
2013-05-01 23:22:00,52.0,49.5,30.37,NE,40,3.0,7.0,91,0.00,,,0.00,Wunderground v.1.15,2013-05-02 03:22:00,
2013-05-01 23:27:00,51.9,49.4,30.37,ENE,75,1.0,10.0,91,0.00,,,0.00,Wunderground v.1.15,2013-05-02 03:27:00,
2013-05-01 23:32:00,51.8,49.3,30.37,ENE,59,0.0,5.0,91,0.00,,,0.00,Wunderground v.1.15,2013-05-02 03:32:00,
2013-05-01 23:38:00,51.7,49.2,30.37,NE,53,0.0,5.0,91,0.00,,,0.00,Wunderground v.1.15,2013-05-02 03:38:00,
2013-05-01 23:43:00,51.7,49.2,30.38,NE,50,0.0,9.0,91,0.00,,,0.00,Wunderground v.1.15,2013-05-02 03:43:00,
2013-05-01 23:48:00,51.6,49.4,30.38,NE,45,3.0,9.0,92,0.00,,,0.00,Wunderground v.1.15,2013-05-02 03:48:00,
2013-05-01 23:53:00,51.6,49.4,30.39,NE,45,1.0,2.0,92,0.00,,,0.00,Wunderground v.1.15,2013-05-02 03:53:00,
2013-05-01 23:58:00,51.5,49.3,30.39,ESE,106,0.0,9.0,92,0.00,,,0.00,Wunderground v.1.15,2013-05-02 03:58:00,